Regional Weather Roundup
Issued by NWS

Home | Current Version | Previous Version | Text Only | Print | Product List | Glossary On
Versions: 1 2 3 4 5 6 7 8 9 10 11 12 13 14 15 16 17 18 19 20 21 22 23 24 25 26 27 28 29 30 31 32 33 34 35 36 37 38 39 40 41 42 43 44 45 46 47 48 49 50
000
ASUS43 KTOP 010508
RWRKS

WEATHER ROUNDUP FOR KANSAS
NATIONAL WEATHER SERVICE GOODLAND KS
1200 AM CDT FRI AUG 01 2014

NOTE:  "FAIR" INDICATES FEW OR NO CLOUDS BELOW 12,000 FEET WITH NO
SIGNIFICANT WEATHER AND/OR OBSTRUCTIONS TO VISIBILITY.

KSZ001>006-013>018-027>032-041>047-010600-
NORTHWEST KANSAS

CITY           SKY/WX    TMP DP  RH WIND       PRES   REMARKS
GOODLAND       CLEAR     65  54  67 W12       30.17S
HAYS           PTCLDY    70  55  60 SW8       30.08S
HILL CITY      CLOUDY    76  54  46 SW7       30.07F
RUSSELL        CLEAR     71  57  61 S13       30.05S
$$

KSZ061>065-074>080-084>089-010600-
SOUTHWEST KANSAS

CITY           SKY/WX    TMP DP  RH WIND       PRES   REMARKS
DODGE CITY     CLEAR     65  58  78 S7        30.13F
ELKHART          N/A     68  52  56 S5          N/A
GARDEN CITY    PTCLDY    62  60  93 SW5       30.14S
GREAT BEND       N/A     66  59  77 S9        30.07F
LIBERAL        MOCLDY    66  55  68 S7        30.18S
PRATT          CLEAR     63  59  88 SW5       30.12S
$$

KSZ066>073-081>083-090>101-010600-
SOUTHEAST KANSAS

CITY           SKY/WX    TMP DP  RH WIND       PRES   REMARKS
CHANUTE        CLEAR     62  59  90 S6        30.08R
COFFEYVILLE    CLEAR     69  67  93 CALM      30.07R
HUTCHINSON     CLEAR     62  56  80 CALM      30.08R
MEDICINE LODGE   N/A     64  62  93 CALM      30.08F
NEWTON         CLEAR     66  54  63 S8        30.11S
PARSONS        CLEAR     66  64  93 CALM      30.09R
WICHITA INTL   PTCLDY    65  60  84 S8        30.07S
WICHITA JABRA  CLEAR     67  62  84 S6        30.08S
WINFIELD       CLEAR     68  64  87 SE5       30.10R
$$

KSZ007>012-019>026-033>040-048>060-102>105-010600-
NORTHEAST KANSAS

CITY           SKY/WX    TMP DP  RH WIND       PRES   REMARKS
CONCORDIA      CLEAR     72  52  49 S13       30.04S
EMPORIA        CLEAR     63  56  78 S9        30.07S
LAWRENCE       CLEAR     65  58  78 E3        30.06R
MANHATTAN      PTCLDY    70  57  63 CALM      30.04S
MARYSVILLE     MOCLDY    72  54  53 S7        30.04R
OLATHE IND     CLEAR     65  59  81 SE5       30.07S
OLATHE EXE     CLEAR     68  59  73 SE5       30.06S
SALINA         CLEAR     69  56  62 SE7       30.06R
TOPEKA BILLARD PTCLDY    68  58  70 E5        30.06R
TOPEKA FORBES  CLEAR     69  58  67 S8        30.06R
$$


USA.gov is the U.S. government's official web portal to all federal, state and local government web resources and services.